Location: Unspecified
(0.0000°N, 0.0000°E)
Time: 15:47:37
(UTC+00:00)

NOSS 3-4 (A) - Pass Details

Date: 11 August 2024
Orbit: 801 x 1411 km, 63.4° (Epoch: 13 September)

Event Time Altitude Azimuth Distance (km) Brightness Sun altitude
Rises 18:18:40 0° 178° (S) 3,560 6.3 -3.3°
Reaches altitude 10° 18:21:57 10° 162° (SSE) 2,528 5.4 -4.1°
Maximum altitude 18:26:06 20° 115° (ESE) 1,816 4.4 -5.1°
Drops below altitude 10° 18:30:03 10° 68° (ENE) 2,384 5.1 -6.0°
Sets 18:33:00 0° 52° (NE) 3,295 5.9 -6.7°
